RYR7EX EGSS-EGPH

Flight info

Callsign RYR7EX
Flight time 1h 4m
Altitude 32000
Route UTAVA Q75 BUZAD T420 TNT UN57 POL UN601 RIBEL DCT INPIP
Aircraft B738/M-SDE2E3FGHIRWXY/LB1

Departure

Time 2026-05-04 21:56
Airport London Stansted Airport (EGSS)

Arrival

Time 2026-05-04 23:00
Airport Edinburgh Airport (EGPH)
Time Latitude Longitude Altitude Speed Heading
2026-05-04 21:04 51.89318 0.25827 343 ft 0 kts 42°
2026-05-04 21:34 51.89309 0.25814 343 ft 4 kts 36°
2026-05-04 21:34 51.89286 0.25795 343 ft 4 kts
2026-05-04 21:34 51.89263 0.25801 343 ft 3 kts 316°
2026-05-04 21:34 51.89260 0.25806 343 ft 0 kts 312°
2026-05-04 21:44 51.89270 0.25788 343 ft 8 kts 312°
2026-05-04 21:44 51.89317 0.25704 343 ft 11 kts 312°
2026-05-04 21:45 51.89368 0.25607 351 ft 11 kts 301°
2026-05-04 21:45 51.89382 0.25567 343 ft 1 kts 299°
2026-05-04 21:45 51.89384 0.25557 343 ft 1 kts 288°
2026-05-04 21:45 51.89395 0.25523 352 ft 7 kts 307°
2026-05-04 21:46 51.89418 0.25420 351 ft 12 kts 248°
2026-05-04 21:46 51.89361 0.25322 354 ft 12 kts 222°
2026-05-04 21:46 51.89313 0.25249 354 ft 0 kts 223°
2026-05-04 21:47 51.89309 0.25243 343 ft 3 kts 223°
2026-05-04 21:48 51.89265 0.25170 343 ft 15 kts 233°
2026-05-04 21:48 51.89199 0.25009 349 ft 18 kts 227°
2026-05-04 21:48 51.89106 0.24871 342 ft 18 kts 222°
2026-05-04 21:48 51.89015 0.24736 353 ft 17 kts 224°
2026-05-04 21:49 51.88932 0.24607 344 ft 17 kts 224°
2026-05-04 21:49 51.88848 0.24482 343 ft 16 kts 222°
2026-05-04 21:49 51.88767 0.24364 350 ft 15 kts 222°
2026-05-04 21:49 51.88691 0.24248 342 ft 15 kts 224°
2026-05-04 21:50 51.88618 0.24139 343 ft 14 kts 222°
2026-05-04 21:50 51.88548 0.24033 337 ft 14 kts 221°
2026-05-04 21:50 51.88474 0.23925 334 ft 15 kts 222°
2026-05-04 21:50 51.88396 0.23811 335 ft 16 kts 222°
2026-05-04 21:51 51.88315 0.23689 334 ft 16 kts 225°
2026-05-04 21:51 51.88235 0.23567 337 ft 16 kts 223°
2026-05-04 21:51 51.88153 0.23444 333 ft 16 kts 223°
2026-05-04 21:51 51.88068 0.23319 335 ft 16 kts 223°
2026-05-04 21:52 51.87991 0.23203 333 ft 11 kts 223°
2026-05-04 21:52 51.87932 0.23113 336 ft 12 kts 223°
2026-05-04 21:52 51.87871 0.23021 335 ft 12 kts 223°
2026-05-04 21:52 51.87809 0.22928 336 ft 12 kts 223°
2026-05-04 21:53 51.87749 0.22837 332 ft 12 kts 223°
2026-05-04 21:53 51.87691 0.22748 333 ft 11 kts 223°
2026-05-04 21:53 51.87634 0.22662 334 ft 11 kts 223°
2026-05-04 21:53 51.87574 0.22572 335 ft 13 kts 221°
2026-05-04 21:54 51.87504 0.22469 332 ft 14 kts 223°
2026-05-04 21:54 51.87432 0.22362 329 ft 14 kts 223°
2026-05-04 21:54 51.87403 0.22221 327 ft 14 kts 286°
2026-05-04 21:54 51.87433 0.22153 330 ft 7 kts 313°
2026-05-04 21:55 51.87472 0.22085 329 ft 9 kts 313°
2026-05-04 21:55 51.87524 0.22029 326 ft 9 kts
2026-05-04 21:55 51.87576 0.22092 326 ft 10 kts 45°
2026-05-04 21:55 51.87819 0.22462 332 ft 99 kts 42°
2026-05-04 21:56 51.88532 0.23492 597 ft 158 kts 41°
2026-05-04 21:56 51.89372 0.24725 1763 ft 157 kts 42°
2026-05-04 21:56 51.90139 0.25896 3039 ft 148 kts 42°
2026-05-04 21:56 51.90880 0.27035 3968 ft 151 kts 42°
2026-05-04 21:57 51.91717 0.28321 4432 ft 186 kts 43°
2026-05-04 21:57 51.92857 0.29637 4706 ft 219 kts 22°
2026-05-04 21:57 51.94403 0.30054 5010 ft 239 kts 356°
2026-05-04 21:57 51.95951 0.29117 5005 ft 240 kts 323°
2026-05-04 21:58 51.96915 0.26945 5007 ft 246 kts 290°
2026-05-04 21:58 51.97266 0.24151 5007 ft 249 kts 279°
2026-05-04 21:58 51.97488 0.21421 4996 ft 247 kts 279°
2026-05-04 21:58 51.97720 0.18690 4994 ft 247 kts 279°
2026-05-04 21:59 51.97973 0.15861 4993 ft 247 kts 280°
2026-05-04 21:59 51.98250 0.13072 5277 ft 252 kts 281°
2026-05-04 21:59 51.98542 0.10283 6145 ft 255 kts 281°
2026-05-04 21:59 51.98859 0.07337 6868 ft 270 kts 280°
2026-05-04 22:00 51.98942 0.04259 7777 ft 277 kts 265°
2026-05-04 22:00 51.98704 0.01133 8782 ft 281 kts 262°
2026-05-04 22:00 51.98430 -0.02019 9742 ft 285 kts 263°
2026-05-04 22:00 51.98165 -0.05256 10590 ft 294 kts 263°
2026-05-04 22:01 51.97896 -0.08669 10979 ft 317 kts 263°
2026-05-04 22:01 51.97613 -0.12263 11039 ft 325 kts 263°
2026-05-04 22:01 51.97327 -0.15901 11039 ft 323 kts 263°
2026-05-04 22:01 51.97044 -0.19507 11053 ft 324 kts 263°
2026-05-04 22:02 51.96759 -0.23136 11052 ft 325 kts 263°
2026-05-04 22:02 51.96475 -0.26738 11556 ft 331 kts 263°
2026-05-04 22:02 51.96177 -0.30514 12666 ft 329 kts 263°
2026-05-04 22:02 51.95887 -0.34186 13623 ft 333 kts 263°
2026-05-04 22:03 51.95588 -0.37948 14500 ft 340 kts 262°
2026-05-04 22:03 51.95282 -0.41782 15424 ft 344 kts 262°
2026-05-04 22:03 51.94972 -0.45644 16390 ft 347 kts 262°
2026-05-04 22:03 51.94694 -0.49530 17357 ft 349 kts 267°
2026-05-04 22:04 51.95072 -0.53421 18267 ft 355 kts 289°
2026-05-04 22:04 51.96345 -0.56874 19110 ft 363 kts 310°
2026-05-04 22:04 51.98300 -0.59432 19892 ft 371 kts 326°
2026-05-04 22:04 52.00531 -0.61612 20647 ft 376 kts 328°
2026-05-04 22:05 52.02797 -0.63733 21403 ft 379 kts 328°
2026-05-04 22:05 52.05085 -0.65882 22339 ft 378 kts 327°
2026-05-04 22:05 52.07376 -0.68080 22944 ft 386 kts 326°
2026-05-04 22:05 52.09687 -0.70335 23620 ft 389 kts 326°
2026-05-04 22:06 52.12000 -0.72605 24462 ft 388 kts 326°
2026-05-04 22:06 52.14302 -0.74874 25351 ft 384 kts 326°
2026-05-04 22:06 52.16568 -0.77119 26269 ft 379 kts 326°
2026-05-04 22:06 52.18808 -0.79341 27129 ft 376 kts 326°
2026-05-04 22:07 52.21038 -0.81556 27902 ft 374 kts 327°
2026-05-04 22:07 52.23252 -0.83755 28642 ft 372 kts 327°
2026-05-04 22:07 52.25452 -0.85942 29386 ft 369 kts 327°
2026-05-04 22:07 52.27640 -0.88111 30090 ft 367 kts 327°
2026-05-04 22:08 52.29810 -0.90263 30752 ft 365 kts 328°
2026-05-04 22:08 52.31987 -0.92421 31368 ft 365 kts 328°
2026-05-04 22:08 52.34147 -0.94567 31920 ft 365 kts 328°
2026-05-04 22:08 52.36365 -0.96774 32030 ft 368 kts 328°
2026-05-04 22:09 52.38510 -0.98911 32051 ft 364 kts 328°
2026-05-04 22:09 52.42827 -1.03220 32064 ft 364 kts 328°
2026-05-04 22:10 52.47201 -1.07595 32062 ft 366 kts 328°
2026-05-04 22:10 52.51541 -1.11967 32060 ft 366 kts 328°
2026-05-04 22:11 52.55874 -1.16368 32061 ft 366 kts 328°
2026-05-04 22:11 52.60207 -1.20757 32065 ft 366 kts 328°
2026-05-04 22:12 52.64463 -1.25068 32064 ft 365 kts 328°
2026-05-04 22:12 52.68780 -1.29454 32065 ft 364 kts 328°
2026-05-04 22:13 52.73080 -1.33829 32072 ft 364 kts 328°
2026-05-04 22:13 52.77383 -1.38208 32073 ft 363 kts 328°
2026-05-04 22:14 52.81706 -1.42621 32075 ft 363 kts 328°
2026-05-04 22:14 52.85998 -1.47013 32073 ft 362 kts 328°
2026-05-04 22:15 52.90254 -1.51378 32073 ft 362 kts 328°
2026-05-04 22:15 52.94487 -1.55731 32075 ft 361 kts 328°
2026-05-04 22:16 52.98750 -1.60125 32071 ft 361 kts 328°
2026-05-04 22:16 53.03020 -1.64534 32064 ft 361 kts 328°
2026-05-04 22:17 53.07453 -1.68412 32070 ft 361 kts 339°
2026-05-04 22:17 53.11371 -1.70824 32061 ft 361 kts 340°
2026-05-04 22:18 53.16091 -1.73666 32066 ft 360 kts 340°
2026-05-04 22:18 53.20794 -1.76543 32062 ft 360 kts 340°
2026-05-04 22:19 53.25507 -1.79463 32067 ft 359 kts 340°
2026-05-04 22:19 53.30151 -1.82356 32061 ft 358 kts 340°
2026-05-04 22:20 53.34807 -1.85267 32064 ft 357 kts 340°
2026-05-04 22:20 53.39479 -1.88194 32061 ft 356 kts 340°
2026-05-04 22:21 53.44113 -1.91105 32069 ft 356 kts 340°
2026-05-04 22:21 53.48720 -1.94008 32066 ft 356 kts 340°
2026-05-04 22:22 53.53348 -1.96927 32065 ft 355 kts 340°
2026-05-04 22:22 53.57970 -1.99850 32068 ft 355 kts 340°
2026-05-04 22:23 53.62596 -2.02782 32066 ft 355 kts 340°
2026-05-04 22:23 53.67211 -2.05716 32064 ft 355 kts 340°
2026-05-04 22:24 53.71822 -2.08653 32069 ft 355 kts 340°
2026-05-04 22:24 53.76430 -2.11652 32061 ft 355 kts 338°
2026-05-04 22:25 53.81002 -2.14829 32056 ft 355 kts 338°
2026-05-04 22:25 53.85570 -2.17994 32058 ft 355 kts 338°
2026-05-04 22:26 53.90165 -2.21149 32054 ft 355 kts 339°
2026-05-04 22:26 53.94736 -2.24278 32053 ft 355 kts 339°
2026-05-04 22:27 53.99308 -2.27418 32053 ft 354 kts 339°
2026-05-04 22:27 54.03867 -2.30559 32067 ft 354 kts 338°
2026-05-04 22:28 54.08431 -2.33706 32063 ft 353 kts 338°
2026-05-04 22:28 54.12978 -2.36848 32054 ft 353 kts 338°
2026-05-04 22:29 54.17532 -2.40003 32057 ft 353 kts 338°
2026-05-04 22:29 54.22091 -2.43170 32055 ft 354 kts 338°
2026-05-04 22:30 54.26652 -2.46345 32057 ft 354 kts 338°
2026-05-04 22:30 54.31220 -2.49533 31735 ft 356 kts 338°
2026-05-04 22:30 54.33462 -2.51100 31493 ft 353 kts 338°
2026-05-04 22:31 54.35735 -2.52692 31247 ft 352 kts 338°
2026-05-04 22:31 54.38003 -2.54281 30999 ft 353 kts 338°
2026-05-04 22:31 54.40286 -2.55882 30752 ft 353 kts 337°
2026-05-04 22:31 54.42549 -2.57472 30504 ft 354 kts 337°
2026-05-04 22:32 54.44834 -2.59079 30249 ft 355 kts 337°
2026-05-04 22:32 54.47123 -2.60691 29925 ft 354 kts 337°
2026-05-04 22:32 54.49395 -2.62294 29503 ft 353 kts 337°
2026-05-04 22:32 54.51665 -2.63896 29024 ft 353 kts 337°
2026-05-04 22:33 54.53934 -2.65500 28545 ft 353 kts 336°
2026-05-04 22:33 54.56204 -2.67106 28143 ft 351 kts 336°
2026-05-04 22:33 54.58458 -2.68704 27752 ft 349 kts 336°
2026-05-04 22:33 54.60696 -2.70290 27353 ft 348 kts 336°
2026-05-04 22:34 54.62919 -2.71869 26972 ft 345 kts 336°
2026-05-04 22:34 54.65096 -2.73416 26568 ft 336 kts 336°
2026-05-04 22:34 54.67230 -2.74933 26194 ft 327 kts 335°
2026-05-04 22:34 54.69275 -2.76390 25835 ft 320 kts 335°
2026-05-04 22:35 54.71333 -2.77858 25478 ft 314 kts 335°
2026-05-04 22:35 54.73335 -2.79289 25127 ft 311 kts 335°
2026-05-04 22:35 54.75360 -2.80740 24794 ft 320 kts 335°
2026-05-04 22:35 54.77475 -2.82258 24439 ft 337 kts 335°
2026-05-04 22:36 54.79626 -2.83800 24035 ft 333 kts 335°
2026-05-04 22:36 54.81743 -2.85314 23649 ft 324 kts 334°
2026-05-04 22:36 54.83803 -2.86791 23265 ft 315 kts 334°
2026-05-04 22:36 54.85800 -2.88225 22920 ft 308 kts 334°
2026-05-04 22:37 54.87767 -2.89641 22572 ft 303 kts 334°
2026-05-04 22:37 54.89725 -2.91056 22030 ft 307 kts 334°
2026-05-04 22:37 54.91719 -2.92500 21651 ft 316 kts 334°
2026-05-04 22:37 54.93769 -2.93988 21286 ft 322 kts 334°
2026-05-04 22:38 54.95812 -2.95469 20903 ft 315 kts 334°
2026-05-04 22:38 54.97810 -2.96914 20538 ft 305 kts 334°
2026-05-04 22:38 54.99744 -2.98314 20192 ft 297 kts 334°
2026-05-04 22:38 55.01627 -2.99680 19858 ft 290 kts 333°
2026-05-04 22:39 55.03478 -3.01026 19541 ft 286 kts 333°
2026-05-04 22:39 55.05308 -3.02361 19229 ft 287 kts 333°
2026-05-04 22:39 55.07197 -3.03746 18922 ft 301 kts 333°
2026-05-04 22:39 55.09152 -3.05179 18575 ft 307 kts 333°
2026-05-04 22:40 55.11104 -3.06603 18209 ft 299 kts 333°
2026-05-04 22:40 55.12990 -3.07977 17859 ft 290 kts 333°
2026-05-04 22:40 55.14821 -3.09313 17531 ft 281 kts 333°
2026-05-04 22:40 55.16613 -3.10625 17212 ft 277 kts 333°
2026-05-04 22:41 55.18382 -3.11923 16903 ft 275 kts 333°
2026-05-04 22:41 55.20164 -3.13236 16607 ft 282 kts 333°
2026-05-04 22:41 55.22005 -3.14597 16292 ft 294 kts 333°
2026-05-04 22:41 55.23895 -3.15990 15939 ft 290 kts 333°
2026-05-04 22:42 55.25726 -3.17334 15597 ft 281 kts 333°
2026-05-04 22:42 55.27505 -3.18641 15264 ft 272 kts 333°
2026-05-04 22:42 55.29208 -3.19895 14964 ft 266 kts 333°
2026-05-04 22:42 55.30926 -3.21164 14667 ft 264 kts 333°
2026-05-04 22:43 55.32620 -3.22419 14376 ft 267 kts 333°
2026-05-04 22:43 55.34379 -3.23727 14075 ft 281 kts 333°
2026-05-04 22:43 55.36173 -3.25059 13746 ft 283 kts 333°
2026-05-04 22:43 55.37988 -3.26403 13387 ft 275 kts 333°
2026-05-04 22:44 55.39715 -3.27679 13050 ft 265 kts 333°
2026-05-04 22:44 55.41390 -3.28922 12747 ft 258 kts 333°
2026-05-04 22:44 55.43045 -3.29942 12597 ft 255 kts 348°
2026-05-04 22:44 55.44804 -3.29618 12481 ft 261 kts 17°
2026-05-04 22:45 55.46412 -3.27973 12438 ft 275 kts 31°
2026-05-04 22:45 55.49516 -3.24057 12347 ft 263 kts 32°
2026-05-04 22:45 55.51002 -3.22136 11860 ft 266 kts 32°
2026-05-04 22:46 55.52460 -3.20248 11517 ft 261 kts 32°
2026-05-04 22:46 55.53925 -3.18350 11248 ft 254 kts 32°
2026-05-04 22:46 55.55360 -3.16663 11039 ft 244 kts 24°
2026-05-04 22:46 55.56867 -3.15336 10836 ft 241 kts 22°
2026-05-04 22:47 55.58401 -3.14246 10618 ft 235 kts 10°
2026-05-04 22:47 55.59991 -3.13662 10375 ft 233 kts
2026-05-04 22:47 55.61583 -3.13169 10128 ft 233 kts
2026-05-04 22:47 55.63181 -3.12664 9874 ft 232 kts
2026-05-04 22:48 55.64774 -3.12139 9629 ft 232 kts
2026-05-04 22:48 55.66355 -3.11599 9386 ft 232 kts
2026-05-04 22:48 55.67938 -3.11049 9142 ft 231 kts
2026-05-04 22:48 55.69517 -3.10489 8906 ft 231 kts
2026-05-04 22:49 55.71085 -3.09929 8663 ft 231 kts
2026-05-04 22:49 55.72661 -3.09360 8417 ft 231 kts 10°
2026-05-04 22:49 55.74242 -3.08783 8167 ft 231 kts 10°
2026-05-04 22:49 55.75814 -3.08208 7928 ft 230 kts 10°
2026-05-04 22:50 55.77384 -3.07633 7684 ft 230 kts 10°
2026-05-04 22:50 55.78954 -3.07056 7440 ft 230 kts 10°
2026-05-04 22:50 55.80511 -3.06483 7199 ft 229 kts 10°
2026-05-04 22:50 55.82082 -3.05905 6957 ft 230 kts 10°
2026-05-04 22:51 55.83633 -3.05331 6698 ft 224 kts 10°
2026-05-04 22:51 55.85136 -3.04779 6457 ft 217 kts
2026-05-04 22:51 55.86598 -3.04300 6237 ft 211 kts
2026-05-04 22:51 55.88022 -3.03848 6017 ft 206 kts
2026-05-04 22:52 55.89444 -3.03397 5825 ft 210 kts
2026-05-04 22:52 55.90910 -3.02931 5617 ft 218 kts
2026-05-04 22:52 55.92426 -3.02446 5346 ft 223 kts
2026-05-04 22:52 55.93919 -3.01966 5120 ft 213 kts
2026-05-04 22:53 55.95339 -3.01795 4902 ft 196 kts 351°
2026-05-04 22:53 55.96622 -3.02141 4841 ft 179 kts 349°
2026-05-04 22:53 55.97851 -3.02443 4723 ft 178 kts 350°
2026-05-04 22:53 55.99072 -3.02734 4554 ft 176 kts 350°
2026-05-04 22:54 56.00279 -3.03016 4364 ft 175 kts 350°
2026-05-04 22:54 56.01473 -3.03373 4192 ft 173 kts 345°
2026-05-04 22:54 56.02628 -3.03860 4009 ft 171 kts 344°
2026-05-04 22:54 56.03739 -3.04413 3826 ft 170 kts 331°
2026-05-04 22:55 56.04426 -3.05991 3637 ft 164 kts 278°
2026-05-04 22:55 56.04198 -3.07978 3510 ft 168 kts 253°
2026-05-04 22:55 56.03852 -3.10009 3283 ft 171 kts 253°
2026-05-04 22:55 56.03400 -3.11943 3102 ft 167 kts 249°
2026-05-04 22:56 56.02934 -3.13687 2898 ft 160 kts 245°
2026-05-04 22:56 56.02398 -3.15402 2696 ft 158 kts 242°
2026-05-04 22:56 56.01850 -3.17050 2498 ft 152 kts 241°
2026-05-04 22:56 56.01320 -3.18615 2297 ft 144 kts 241°
2026-05-04 22:57 56.00795 -3.20161 2110 ft 145 kts 240°
2026-05-04 22:57 56.00268 -3.21706 1901 ft 146 kts 240°
2026-05-04 22:57 55.99748 -3.23238 1719 ft 145 kts 240°
2026-05-04 22:57 55.99231 -3.24764 1526 ft 144 kts 239°
2026-05-04 22:58 55.98704 -3.26317 1344 ft 148 kts 239°
2026-05-04 22:58 55.98348 -3.27366 1205 ft 145 kts 239°
2026-05-04 22:58 55.97834 -3.28880 1012 ft 140 kts 239°
2026-05-04 22:58 55.97331 -3.30366 793 ft 140 kts 239°
2026-05-04 22:59 55.96852 -3.31880 627 ft 139 kts 241°
2026-05-04 22:59 55.96359 -3.33359 443 ft 140 kts 238°
2026-05-04 22:59 55.95835 -3.34843 275 ft 142 kts 238°
2026-05-04 22:59 55.95312 -3.36342 117 ft 140 kts 238°
2026-05-04 23:00 55.94862 -3.37657 113 ft 108 kts 239°
2026-05-04 23:00 55.94533 -3.38628 112 ft 70 kts 239°
2026-05-04 23:00 55.94429 -3.38930 113 ft 19 kts 231°
2026-05-04 23:00 55.94352 -3.38940 114 ft 11 kts 148°
2026-05-04 23:01 55.94301 -3.38884 115 ft 8 kts 146°
2026-05-04 23:01 55.94283 -3.38795 115 ft 8 kts 77°
2026-05-04 23:01 55.94311 -3.38707 115 ft 9 kts 59°
2026-05-04 23:01 55.94343 -3.38612 115 ft 9 kts 59°
2026-05-04 23:02 55.94375 -3.38518 115 ft 10 kts 58°
2026-05-04 23:02 55.94413 -3.38408 115 ft 11 kts 58°
2026-05-04 23:02 55.94452 -3.38294 115 ft 11 kts 58°
2026-05-04 23:02 55.94493 -3.38173 115 ft 12 kts 59°
2026-05-04 23:03 55.94536 -3.38044 115 ft 12 kts 59°
2026-05-04 23:03 55.94581 -3.37913 115 ft 13 kts 59°
2026-05-04 23:03 55.94629 -3.37772 115 ft 14 kts 59°
2026-05-04 23:03 55.94677 -3.37628 115 ft 14 kts 59°
2026-05-04 23:04 55.94730 -3.37472 115 ft 15 kts 59°
2026-05-04 23:04 55.94783 -3.37318 115 ft 15 kts 58°
2026-05-04 23:04 55.94826 -3.37191 115 ft 11 kts 59°
2026-05-04 23:04 55.94867 -3.37068 115 ft 12 kts 59°
2026-05-04 23:05 55.94910 -3.36937 115 ft 13 kts 59°
2026-05-04 23:05 55.94913 -3.36817 115 ft 10 kts 137°
2026-05-04 23:05 55.94903 -3.36723 115 ft 4 kts 60°
2026-05-04 23:05 55.94919 -3.36674 115 ft 5 kts 60°
2026-05-04 23:06 55.94930 -3.36636 115 ft 3 kts 69°
2026-05-04 23:06 55.94926 -3.36602 115 ft 3 kts 116°
2026-05-04 23:06 55.94912 -3.36581 115 ft 3 kts 148°
2026-05-04 23:06 55.94897 -3.36565 112 ft 2 kts 149°
2026-05-04 23:07 55.94886 -3.36554 115 ft 1 kts 149°
2026-05-04 23:07 55.94881 -3.36548 115 ft 0 kts 149°